TimeCDT,TemperatureF,Dew PointF,Humidity,Sea Level PressureIn,VisibilityMPH,Wind Direction,Wind SpeedMPH,Gust SpeedMPH,PrecipitationIn,Events,Conditions,WindDirDegrees,DateUTC
12:15 AM,-9999,-9999,N/A,29.95,10.0,Calm,Calm,-,N/A,,Clear,0,2014-04-23 05:15:00
12:35 AM,-9999,-9999,N/A,29.95,7.0,Calm,Calm,-,N/A,,Clear,0,2014-04-23 05:35:00
12:55 AM,-9999,-9999,N/A,29.95,3.0,Calm,Calm,-,N/A,,Clear,0,2014-04-23 05:55:00
1:15 AM,-9999,-9999,N/A,29.95,10.0,Calm,Calm,-,N/A,,Clear,0,2014-04-23 06:15:00
1:35 AM,-9999,-9999,N/A,29.95,7.0,Calm,Calm,-,N/A,,Clear,0,2014-04-23 06:35:00
1:55 AM,-9999,-9999,N/A,29.95,10.0,Calm,Calm,-,N/A,,Clear,0,2014-04-23 06:55:00
2:15 AM,-9999,-9999,N/A,29.95,0.2,Calm,Calm,-,N/A,Fog,Fog,0,2014-04-23 07:15:00
2:35 AM,-9999,-9999,N/A,29.94,0.2,Calm,Calm,-,N/A,Fog,Fog,0,2014-04-23 07:35:00
2:55 AM,-9999,-9999,N/A,29.94,0.2,Calm,Calm,-,N/A,Fog,Fog,0,2014-04-23 07:55:00
3:15 AM,-9999,-9999,N/A,29.94,0.2,Calm,Calm,-,N/A,Fog,Fog,0,2014-04-23 08:15:00
3:35 AM,-9999,-9999,N/A,29.94,0.2,Calm,Calm,-,N/A,Fog,Fog,0,2014-04-23 08:35:00
3:55 AM,-9999,-9999,N/A,29.94,0.2,Calm,Calm,-,N/A,Fog,Fog,0,2014-04-23 08:55:00
4:15 AM,-9999,-9999,N/A,29.95,0.2,Calm,Calm,-,N/A,Fog,Fog,0,2014-04-23 09:15:00
4:35 AM,-9999,-9999,N/A,29.95,0.2,Calm,Calm,-,N/A,Fog,Fog,0,2014-04-23 09:35:00
4:55 AM,-9999,-9999,N/A,29.95,0.2,Calm,Calm,-,N/A,Fog,Fog,0,2014-04-23 09:55:00
5:15 AM,-9999,-9999,N/A,29.95,0.2,Calm,Calm,-,N/A,Fog,Fog,0,2014-04-23 10:15:00
5:35 AM,-9999,-9999,N/A,29.95,0.2,Calm,Calm,-,N/A,Fog,Fog,0,2014-04-23 10:35:00
5:55 AM,-9999,-9999,N/A,29.96,0.2,Calm,Calm,-,N/A,Fog,Fog,0,2014-04-23 10:55:00
6:15 AM,-9999,-9999,N/A,29.96,0.2,Calm,Calm,-,N/A,Fog,Fog,0,2014-04-23 11:15:00
6:35 AM,-9999,-9999,N/A,29.97,0.2,Calm,Calm,-,N/A,Fog,Fog,0,2014-04-23 11:35:00
6:55 AM,-9999,-9999,N/A,29.98,0.2,Calm,Calm,-,N/A,Fog,Fog,0,2014-04-23 11:55:00
7:15 AM,-9999,-9999,N/A,29.98,0.5,Calm,Calm,-,N/A,Fog,Fog,0,2014-04-23 12:15:00
7:35 AM,-9999,-9999,N/A,29.99,5.0,Calm,Calm,-,N/A,,Haze,0,2014-04-23 12:35:00
7:55 AM,-9999,-9999,N/A,29.99,10.0,Calm,Calm,-,N/A,,Clear,0,2014-04-23 12:55:00
8:15 AM,-9999,-9999,N/A,29.99,10.0,Calm,Calm,-,N/A,,Clear,0,2014-04-23 13:15:00
8:35 AM,-9999,-9999,N/A,29.99,10.0,Calm,Calm,-,N/A,,Clear,0,2014-04-23 13:35:00
8:55 AM,-9999,-9999,N/A,29.99,10.0,Calm,Calm,-,N/A,,Clear,0,2014-04-23 13:55:00
9:15 AM,-9999,-9999,N/A,30.00,10.0,Calm,Calm,-,N/A,,Clear,0,2014-04-23 14:15:00
9:35 AM,79.5,66.7,65,30.00,10.0,East,3.5,-,N/A,,Clear,90,2014-04-23 14:35:00
9:55 AM,80.8,63.9,56,30.00,10.0,East,5.8,-,N/A,,Clear,90,2014-04-23 14:55:00
10:15 AM,81.5,62.8,53,30.00,10.0,East,4.6,-,N/A,,Clear,100,2014-04-23 15:15:00
10:35 AM,82.6,63.0,51,30.01,10.0,Calm,Calm,-,N/A,,Clear,0,2014-04-23 15:35:00
10:55 AM,81.5,61.9,51,30.01,10.0,Calm,Calm,-,N/A,,Scattered Clouds,0,2014-04-23 15:55:00
11:15 AM,84.0,59.9,44,30.01,10.0,East,4.6,-,N/A,,Scattered Clouds,80,2014-04-23 16:15:00
11:35 AM,83.7,59.2,43,30.00,10.0,Calm,Calm,-,N/A,,Scattered Clouds,0,2014-04-23 16:35:00
11:55 AM,85.6,58.3,39,30.00,10.0,Calm,Calm,-,N/A,,Mostly Cloudy,0,2014-04-23 16:55:00
12:15 PM,84.6,58.1,40,29.99,10.0,ESE,4.6,-,N/A,,Mostly Cloudy,110,2014-04-23 17:15:00
12:35 PM,83.7,58.8,43,29.98,10.0,SE,3.5,-,N/A,,Mostly Cloudy,140,2014-04-23 17:35:00
1:15 PM,83.5,60.8,46,29.97,10.0,Calm,Calm,-,N/A,,Overcast,0,2014-04-23 18:15:00
1:35 PM,83.7,61.2,46,29.96,10.0,SSW,6.9,-,N/A,,Overcast,210,2014-04-23 18:35:00
1:55 PM,85.3,60.8,44,29.96,10.0,Calm,Calm,-,N/A,,Mostly Cloudy,0,2014-04-23 18:55:00
2:15 PM,86.9,58.8,39,29.95,10.0,Calm,Calm,-,N/A,,Mostly Cloudy,0,2014-04-23 19:15:00
2:55 PM,88.2,59.0,37,29.93,10.0,SW,8.1,-,N/A,,Overcast,220,2014-04-23 19:55:00
3:15 PM,88.0,57.7,36,29.93,10.0,West,3.5,-,N/A,,Scattered Clouds,260,2014-04-23 20:15:00
3:35 PM,88.0,57.7,36,29.92,10.0,South,4.6,-,N/A,,Clear,170,2014-04-23 20:35:00
3:55 PM,86.9,60.3,41,29.91,10.0,South,6.9,-,N/A,,Clear,180,2014-04-23 20:55:00
4:15 PM,85.1,59.4,42,29.90,10.0,South,3.5,-,N/A,,Clear,180,2014-04-23 21:15:00
4:35 PM,87.3,60.1,40,29.90,10.0,South,6.9,-,N/A,,Clear,170,2014-04-23 21:35:00
4:55 PM,85.6,62.2,45,29.89,10.0,SSE,11.5,-,N/A,,Clear,160,2014-04-23 21:55:00
5:15 PM,86.2,61.7,44,29.89,10.0,South,10.4,-,N/A,,Clear,170,2014-04-23 22:15:00
5:35 PM,85.1,61.5,45,29.89,10.0,South,8.1,-,N/A,,Clear,170,2014-04-23 22:35:00
6:15 PM,84.2,61.2,46,29.89,10.0,South,8.1,-,N/A,,Clear,170,2014-04-23 23:15:00
6:35 PM,82.8,63.0,51,29.89,10.0,South,9.2,-,N/A,,Clear,170,2014-04-23 23:35:00
6:55 PM,81.5,63.7,55,29.89,10.0,South,10.4,-,N/A,,Clear,170,2014-04-23 23:55:00
7:15 PM,80.1,64.2,58,29.89,10.0,South,6.9,-,N/A,,Clear,180,2014-04-24 00:15:00
7:35 PM,78.3,64.9,63,29.89,10.0,SSE,5.8,-,N/A,,Clear,160,2014-04-24 00:35:00
7:55 PM,76.5,65.7,69,29.89,10.0,South,5.8,-,N/A,,Clear,170,2014-04-24 00:55:00
8:15 PM,76.1,66.2,71,29.90,10.0,South,3.5,-,N/A,,Clear,190,2014-04-24 01:15:00
8:35 PM,75.4,66.7,74,29.90,10.0,South,3.5,-,N/A,,Clear,190,2014-04-24 01:35:00
8:55 PM,74.3,67.5,79,29.91,10.0,SSW,3.5,-,N/A,,Clear,200,2014-04-24 01:55:00
9:15 PM,74.5,68.4,81,29.91,10.0,South,3.5,-,N/A,,Clear,190,2014-04-24 02:15:00
9:55 PM,72.9,72.3,98,29.91,10.0,Calm,Calm,-,N/A,,Clear,0,2014-04-24 02:55:00
10:15 PM,-9999,-9999,N/A,29.92,10.0,Calm,Calm,-,N/A,,Clear,0,2014-04-24 03:15:00
10:35 PM,-9999,-9999,N/A,29.92,10.0,South,3.5,-,N/A,,Clear,180,2014-04-24 03:35:00
10:55 PM,-9999,-9999,N/A,29.92,10.0,SSW,4.6,-,N/A,,Clear,200,2014-04-24 03:55:00
11:15 PM,-9999,-9999,N/A,29.93,10.0,Calm,Calm,-,N/A,,Clear,0,2014-04-24 04:15:00
11:35 PM,-9999,-9999,N/A,29.93,10.0,SSW,3.5,-,N/A,,Clear,210,2014-04-24 04:35:00
11:55 PM,-9999,-9999,N/A,29.93,10.0,SSW,3.5,-,N/A,,Clear,210,2014-04-24 04:55:00